Tulsa Jones, OK

11:48 AM CDT on April 28, 2017 (GMT -0500)
Jones Jr.

Weather History for KRVS - April, 2014

Change the Weather History Date:

Wednesday, April 30, 2014

  Actual Average (KTUL) Record (KTUL)
Temperature  
Mean Temperature 54 °F -  
Max Temperature 64 °F 74 °F 91 °F (1959)
Min Temperature 43 °F 54 °F 35 °F (1908)
Degree Days  
Heating Degree Days 11    
Growing Degree Days 4 (Base 50)    
Moisture  
Dew Point 33 °F    
Average Humidity 50    
Maximum Humidity 74    
Minimum Humidity 26    
Precipitation  
Precipitation 0.00 in - - ()
Sea Level Pressure  
Sea Level Pressure 30.06 in    
Wind  
Wind Speed 5 mph (NW)    
Max Wind Speed 15 mph    
Max Gust Speed 24 mph    
Visibility 10 miles    
Events      
Averages and records for this station are not official NWS values.
T = Trace of Precipitation, MM = Missing Value Source: NWS Daily Summary

Daily Weather History Graph

Daily Weather History Graph

Search for Another Location

Airport or City:

Trip Planner

Search our weather history database for the weather conditions in past years. The results will help you decide how hot, cold, wet, or windy it might be!

Date:

Astronomy

Apr. 30, 2014 Rise Set
Actual Time 6:32 AM CDT 8:10 PM CDT
Civil Twilight 6:04 AM CDT 8:37 PM CDT
Nautical Twilight 5:32 AM CDT 9:10 PM CDT
Astronomical Twilight 4:57 AM CDT 9:45 PM CDT
Moon 7:35 AM CDT (4/30) 9:48 PM CDT (4/30)
Length of Visible Light 14h 32m
Length of Day
13h 38m
New Moon, 2% of the Moon is Illuminated
Apr 30
New Moon
May 6
First Quarter
May 14
Full
May 21
Last Quarter
May 28
New

Hourly Weather History & Observations

Time (CDT) Temp. Windchill Dew Point Humidity Pressure Visibility Wind Dir Wind Speed Gust Speed Precip Events Conditions
12:53 AM 48.9 °F - 37.9 °F 66% 29.97 in 10.0 mi Calm Calm - N/A   Overcast
1:53 AM 48.9 °F - 37.0 °F 64% 29.97 in 10.0 mi Variable 5.8 mph - N/A   Overcast
2:53 AM 48.0 °F - 37.0 °F 66% 29.99 in 10.0 mi Variable 3.5 mph - N/A   Overcast
3:53 AM 48.0 °F - 37.0 °F 66% 30.00 in 10.0 mi NNW 4.6 mph - N/A   Overcast
4:53 AM 48.0 °F - 36.0 °F 63% 30.02 in 10.0 mi Variable 6.9 mph - N/A   Overcast
5:53 AM 46.0 °F 43.1 °F 36.0 °F 68% 30.03 in 10.0 mi NW 5.8 mph - N/A   Clear
6:53 AM 46.0 °F 44.8 °F 37.0 °F 71% 30.06 in 10.0 mi Variable 3.5 mph - N/A   Clear
7:53 AM 48.9 °F - 37.9 °F 66% 30.08 in 10.0 mi Variable 3.5 mph - N/A   Clear
8:53 AM 51.1 °F - 37.9 °F 61% 30.09 in 10.0 mi NW 8.1 mph - N/A   Clear
10:53 AM 55.0 °F - 37.0 °F 51% 30.10 in 10.0 mi NW 8.1 mph 19.6 mph N/A   Mostly Cloudy
11:53 AM 57.0 °F - 32.0 °F 39% 30.09 in 10.0 mi NNW 8.1 mph - N/A   Overcast
12:53 PM 57.0 °F - 30.0 °F 36% 30.10 in 10.0 mi Variable 6.9 mph 21.9 mph N/A   Mostly Cloudy
1:53 PM 60.1 °F - 32.0 °F 35% 30.09 in 10.0 mi NW 15.0 mph 24.2 mph N/A   Overcast
2:53 PM 61.0 °F - 28.0 °F 29% 30.08 in 10.0 mi NNW 15.0 mph 21.9 mph N/A   Mostly Cloudy
3:53 PM 60.1 °F - 28.9 °F 31% 30.07 in 10.0 mi NW 9.2 mph - N/A   Mostly Cloudy
4:53 PM 60.1 °F - 27.0 °F 28% 30.06 in 10.0 mi Variable 6.9 mph 18.4 mph N/A   Scattered Clouds
5:53 PM 62.1 °F - 27.0 °F 26% 30.05 in 10.0 mi Variable 4.6 mph 17.3 mph N/A   Mostly Cloudy
7:53 PM 59.0 °F - 27.0 °F 29% 30.06 in 10.0 mi NNW 5.8 mph - N/A   Mostly Cloudy
8:53 PM 57.0 °F - 26.1 °F 30% 30.07 in 10.0 mi Variable 4.6 mph - N/A   Scattered Clouds
9:53 PM 52.0 °F - 28.9 °F 41% 30.10 in 10.0 mi Calm Calm - N/A   Clear
10:53 PM 46.0 °F - 33.1 °F 61% 30.11 in 10.0 mi Calm Calm - N/A   Clear
11:53 PM 43.0 °F - 35.1 °F 74% 30.11 in 10.0 mi Calm Calm - N/A   Clear